CCA977 ZBAA-WIII

Flight info

Callsign CCA977
Flight time N/A
Altitude 34000
Route RUSDO W45 IPLEV B458 DADGA W37 GUSIV V52 OPUNI R473 WYN W18 TAMOT/N0480F340 B330 BIGEX L642 EPKAL/K0889F340 L642 CN L644 DUDIS/N0477F340 L644 TPN W38W AMBOY
Aircraft B77W/H-SDE1E2E3FGHIJ2J3J4J5M1RWXY/LB1D1

Departure

Time 2026-05-04 04:20
Airport Beijing Capital International Airport (ZBAA)

Arrival

Time N/A
Airport Soekarno-Hatta International Airport (WIII)
Time Latitude Longitude Altitude Speed Heading
2026-05-04 03:51 40.07376 116.60780 128 ft 0 kts 263°
2026-05-04 04:10 40.07377 116.60793 129 ft 2 kts 263°
2026-05-04 04:11 40.07379 116.60816 129 ft 3 kts 263°
2026-05-04 04:11 40.07381 116.60842 129 ft 3 kts 263°
2026-05-04 04:11 40.07384 116.60869 129 ft 3 kts 263°
2026-05-04 04:11 40.07386 116.60895 129 ft 3 kts 263°
2026-05-04 04:12 40.07386 116.60890 129 ft 0 kts 263°
2026-05-04 04:12 40.07386 116.60896 129 ft 2 kts 263°
2026-05-04 04:12 40.07387 116.60905 129 ft 0 kts 263°
2026-05-04 04:13 40.07387 116.60904 129 ft 1 kts 263°
2026-05-04 04:13 40.07373 116.60887 129 ft 3 kts 197°
2026-05-04 04:13 40.07312 116.60909 129 ft 13 kts 162°
2026-05-04 04:14 40.07223 116.60935 129 ft 13 kts 168°
2026-05-04 04:14 40.07156 116.60950 129 ft 6 kts 179°
2026-05-04 04:14 40.07113 116.60951 129 ft 6 kts 176°
2026-05-04 04:14 40.07063 116.60956 129 ft 10 kts 173°
2026-05-04 04:15 40.06997 116.60967 129 ft 10 kts 172°
2026-05-04 04:15 40.06945 116.61029 129 ft 17 kts 98°
2026-05-04 04:15 40.06953 116.61161 129 ft 21 kts 83°
2026-05-04 04:15 40.06964 116.61277 129 ft 6 kts 83°
2026-05-04 04:16 40.06957 116.61343 129 ft 9 kts 129°
2026-05-04 04:16 40.06833 116.61384 129 ft 25 kts 173°
2026-05-04 04:16 40.06670 116.61409 129 ft 23 kts 173°
2026-05-04 04:16 40.06517 116.61433 129 ft 22 kts 173°
2026-05-04 04:17 40.06373 116.61457 129 ft 21 kts 173°
2026-05-04 04:17 40.06232 116.61479 129 ft 20 kts 173°
2026-05-04 04:17 40.06098 116.61500 129 ft 19 kts 174°
2026-05-04 04:17 40.05989 116.61515 129 ft 5 kts 173°
2026-05-04 04:18 40.05956 116.61534 129 ft 6 kts 129°
2026-05-04 04:18 40.05948 116.61587 129 ft 6 kts 86°
2026-05-04 04:18 40.05951 116.61640 129 ft 6 kts 85°
2026-05-04 04:18 40.05955 116.61692 129 ft 6 kts 85°
2026-05-04 04:19 40.05973 116.61733 129 ft 5 kts 34°
2026-05-04 04:19 40.06008 116.61744 129 ft 5 kts 358°
2026-05-04 04:19 40.06045 116.61740 129 ft 8 kts 354°
2026-05-04 04:19 40.06434 116.61681 129 ft 105 kts 353°
2026-05-04 04:20 40.07472 116.61516 166 ft 189 kts 353°
2026-05-04 04:20 40.08891 116.61293 814 ft 218 kts 353°
2026-05-04 04:20 40.10436 116.61159 1569 ft 226 kts
2026-05-04 04:20 40.11962 116.61654 2229 ft 230 kts 21°
2026-05-04 04:21 40.13352 116.62701 2856 ft 232 kts 32°
2026-05-04 04:21 40.14709 116.63810 3410 ft 235 kts 31°
2026-05-04 04:21 40.15986 116.65138 3915 ft 241 kts 51°
2026-05-04 04:21 40.16716 116.67154 4549 ft 253 kts 73°
2026-05-04 04:22 40.17102 116.69450 5201 ft 266 kts 78°
2026-05-04 04:22 40.17388 116.71907 5833 ft 281 kts 83°
2026-05-04 04:22 40.17592 116.74519 6464 ft 295 kts 83°
2026-05-04 04:22 40.18086 116.77158 7086 ft 307 kts 65°
2026-05-04 04:23 40.19372 116.79432 7729 ft 319 kts 42°
2026-05-04 04:23 40.21315 116.80926 8369 ft 333 kts 20°
2026-05-04 04:23 40.23629 116.81395 8984 ft 344 kts 359°
2026-05-04 04:23 40.25977 116.80720 9602 ft 349 kts 337°
2026-05-04 04:24 40.28000 116.78968 10237 ft 353 kts 316°
2026-05-04 04:24 40.29436 116.76352 10860 ft 357 kts 296°
2026-05-04 04:24 40.30119 116.73228 11491 ft 360 kts 279°
2026-05-04 04:24 40.30496 116.69973 12118 ft 364 kts 283°
2026-05-04 04:25 40.31277 116.66803 12743 ft 367 kts 290°
2026-05-04 04:25 40.32010 116.63590 13371 ft 370 kts 283°
2026-05-04 04:25 40.32450 116.60247 13995 ft 374 kts 277°
2026-05-04 04:25 40.32658 116.56835 14618 ft 377 kts 273°
2026-05-04 04:26 40.32713 116.53388 15243 ft 381 kts 270°
2026-05-04 04:26 40.32663 116.49902 15870 ft 384 kts 268°
2026-05-04 04:26 40.32565 116.46387 16497 ft 388 kts 268°
2026-05-04 04:26 40.32473 116.42883 17116 ft 391 kts 268°
2026-05-04 04:27 40.32392 116.39309 17740 ft 395 kts 268°
2026-05-04 04:27 40.32339 116.35693 18366 ft 399 kts 269°
2026-05-04 04:27 40.32302 116.32048 18991 ft 402 kts 269°
2026-05-04 04:27 40.32249 116.28370 19617 ft 406 kts 269°
2026-05-04 04:28 40.32181 116.24652 20244 ft 409 kts 268°
2026-05-04 04:28 40.32107 116.20915 20870 ft 412 kts 268°
2026-05-04 04:28 40.32030 116.17156 21496 ft 414 kts 268°
2026-05-04 04:28 40.31951 116.13374 22122 ft 416 kts 268°
2026-05-04 04:29 40.31871 116.09573 22749 ft 418 kts 268°
2026-05-04 04:29 40.31789 116.05761 23375 ft 418 kts 268°
2026-05-04 04:29 40.31643 116.03253 23781 ft 417 kts 261°
2026-05-04 04:29 40.30288 115.98545 24616 ft 416 kts 237°
2026-05-04 04:30 40.29093 115.96587 25032 ft 415 kts 225°
2026-05-04 04:30 40.26091 115.93454 25874 ft 413 kts 215°
2026-05-04 04:30 40.24514 115.92060 26289 ft 412 kts 213°
2026-05-04 04:30 40.22097 115.90072 26913 ft 410 kts 212°
2026-05-04 04:31 40.19647 115.88169 27537 ft 408 kts 210°
2026-05-04 04:31 40.17161 115.86392 28162 ft 406 kts 208°
2026-05-04 04:31 40.14668 115.84704 28784 ft 403 kts 207°
2026-05-04 04:31 40.12184 115.83042 29407 ft 399 kts 207°
2026-05-04 04:32 40.09728 115.81392 30030 ft 395 kts 207°
2026-05-04 04:32 40.07306 115.79762 30651 ft 389 kts 207°
2026-05-04 04:32 40.04914 115.78150 31214 ft 385 kts 207°
2026-05-04 04:32 40.02529 115.76543 31607 ft 385 kts 207°
2026-05-04 04:33 40.00141 115.74935 31810 ft 391 kts 207°
2026-05-04 04:33 39.97686 115.73282 31817 ft 402 kts 207°
2026-05-04 04:33 39.95168 115.71582 31818 ft 413 kts 207°
2026-05-04 04:33 39.92578 115.69840 31829 ft 424 kts 207°
2026-05-04 04:34 39.87233 115.66240 31949 ft 441 kts 209°
2026-05-04 04:34 39.84678 115.63974 31991 ft 449 kts 220°
2026-05-04 04:34 39.82475 115.61047 32043 ft 458 kts 232°
2026-05-04 04:35 39.80828 115.57479 32098 ft 465 kts 246°
2026-05-04 04:35 39.79645 115.53532 32132 ft 472 kts 248°
2026-05-04 04:35 39.76627 115.45827 32365 ft 483 kts 240°
2026-05-04 04:36 39.74937 115.42054 32685 ft 483 kts 241°
2026-05-04 04:36 39.73354 115.38216 33074 ft 481 kts 243°
2026-05-04 04:36 39.71841 115.34344 33419 ft 481 kts 243°
2026-05-04 04:36 39.70349 115.30464 33750 ft 480 kts 243°
2026-05-04 04:37 39.65808 115.18932 34103 ft 480 kts 243°
2026-05-04 04:37 39.64275 115.15087 34100 ft 480 kts 243°
2026-05-04 04:38 39.61184 115.07354 34100 ft 479 kts 242°
2026-05-04 04:38 39.58144 114.99665 34099 ft 479 kts 243°
2026-05-04 04:39 39.55096 114.91991 34100 ft 479 kts 243°
2026-05-04 04:39 39.52040 114.84303 34100 ft 479 kts 243°
2026-05-04 04:40 39.48991 114.76691 34099 ft 479 kts 242°
2026-05-04 04:40 39.45895 114.69050 34100 ft 479 kts 242°
2026-05-04 04:41 39.42792 114.61413 34100 ft 479 kts 242°
2026-05-04 04:41 39.39690 114.53784 34100 ft 479 kts 242°
2026-05-04 04:42 39.36578 114.46152 34100 ft 479 kts 242°
2026-05-04 04:42 39.33114 114.38835 34099 ft 478 kts 227°
2026-05-04 04:43 39.30564 114.36099 34099 ft 479 kts 211°
2026-05-04 04:43 39.27524 114.34351 34099 ft 480 kts 195°
2026-05-04 04:43 39.24233 114.33731 34099 ft 480 kts 180°
2026-05-04 04:43 39.20927 114.34281 34100 ft 480 kts 164°
2026-05-04 04:44 39.17830 114.35862 34101 ft 480 kts 153°
2026-05-04 04:44 39.14856 114.37800 34099 ft 479 kts 156°
2026-05-04 04:44 39.11698 114.39125 34099 ft 479 kts 170°
2026-05-04 04:44 39.08394 114.39649 34104 ft 479 kts 173°
2026-05-04 04:45 39.01802 114.41058 34100 ft 480 kts 168°
2026-05-04 04:47 38.78913 114.47021 34099 ft 479 kts 168°
2026-05-04 04:47 38.72363 114.48674 34100 ft 479 kts 169°
2026-05-04 04:48 38.65814 114.50317 34100 ft 479 kts 169°
2026-05-04 04:49 38.49463 114.54482 34099 ft 479 kts 168°
2026-05-04 04:49 38.42914 114.56143 34100 ft 479 kts 169°
2026-05-04 04:50 38.36341 114.57599 34100 ft 479 kts 170°
2026-05-04 04:50 38.29768 114.59042 34099 ft 479 kts 170°
2026-05-04 04:51 38.23189 114.60505 34100 ft 479 kts 170°
2026-05-04 04:51 38.16664 114.61959 34100 ft 479 kts 170°
2026-05-04 04:52 38.10094 114.63427 34099 ft 479 kts 170°
2026-05-04 04:52 38.03526 114.64901 34100 ft 479 kts 170°
2026-05-04 04:53 37.96952 114.66366 34100 ft 479 kts 170°
2026-05-04 04:53 37.90382 114.67827 34099 ft 479 kts 170°
2026-05-04 04:54 37.83804 114.69286 34100 ft 479 kts 170°
2026-05-04 04:54 37.77235 114.70748 34100 ft 479 kts 170°
2026-05-04 04:55 37.70665 114.72200 34099 ft 479 kts 170°
2026-05-04 04:55 37.64086 114.73649 34100 ft 479 kts 170°
2026-05-04 04:56 37.57517 114.75093 34100 ft 479 kts 170°
2026-05-04 04:56 37.50941 114.76537 34099 ft 480 kts 170°
2026-05-04 04:57 37.44406 114.77951 34100 ft 479 kts 170°
2026-05-04 04:57 37.37825 114.79361 34100 ft 480 kts 170°
2026-05-04 04:58 37.31252 114.80768 34100 ft 480 kts 170°
2026-05-04 04:58 37.24676 114.82210 34100 ft 479 kts 169°
2026-05-04 04:59 37.18115 114.83758 34100 ft 480 kts 169°
2026-05-04 04:59 37.11556 114.85292 34099 ft 480 kts 169°
2026-05-04 05:00 37.04992 114.86817 34100 ft 480 kts 169°
2026-05-04 05:01 36.95155 114.89095 34100 ft 480 kts 169°
2026-05-04 05:01 36.88590 114.90624 34100 ft 480 kts 169°
2026-05-04 05:02 36.82032 114.92143 34100 ft 480 kts 169°
2026-05-04 05:02 36.75466 114.93659 34100 ft 480 kts 169°
2026-05-04 05:03 36.68903 114.95170 34100 ft 480 kts 169°
2026-05-04 05:04 36.55820 114.98182 34100 ft 480 kts 169°
2026-05-04 05:04 36.49262 114.99682 34100 ft 480 kts 169°
2026-05-04 05:06 36.26103 115.01889 34100 ft 480 kts 185°
2026-05-04 05:06 36.22780 115.01530 34100 ft 480 kts 185°
2026-05-04 05:07 36.16128 115.00820 34100 ft 480 kts 185°
2026-05-04 05:07 36.09479 115.00130 34100 ft 479 kts 185°
2026-05-04 05:09 35.79550 114.97067 34100 ft 480 kts 185°
2026-05-04 05:10 35.72894 114.96392 34100 ft 480 kts 185°
2026-05-04 05:10 35.66291 114.95722 34100 ft 480 kts 185°
2026-05-04 05:11 35.59636 114.95049 34100 ft 480 kts 185°
2026-05-04 05:11 35.52987 114.94378 34100 ft 480 kts 185°
2026-05-04 05:12 35.46332 114.93706 34100 ft 480 kts 185°
2026-05-04 05:12 35.39683 114.93037 34100 ft 480 kts 185°
2026-05-04 05:13 35.33027 114.92368 34100 ft 480 kts 185°
2026-05-04 05:13 35.26378 114.91701 34100 ft 480 kts 185°
2026-05-04 05:14 35.19730 114.91035 34100 ft 480 kts 185°
2026-05-04 05:14 35.13073 114.90370 34100 ft 480 kts 185°
2026-05-04 05:15 35.06423 114.89706 34100 ft 480 kts 185°
2026-05-04 05:15 34.99766 114.89042 34100 ft 480 kts 185°
2026-05-04 05:16 34.94236 114.88492 34100 ft 480 kts 185°
2026-05-04 05:16 34.87587 114.87831 34100 ft 480 kts 185°
2026-05-04 05:17 34.80938 114.87171 34099 ft 480 kts 185°
2026-05-04 05:17 34.74288 114.86513 34100 ft 480 kts 185°
2026-05-04 05:18 34.67632 114.85854 34100 ft 480 kts 185°
2026-05-04 05:18 34.60983 114.85198 34100 ft 480 kts 185°
2026-05-04 05:19 34.54327 114.84542 34100 ft 480 kts 185°
2026-05-04 05:19 34.47678 114.83886 34100 ft 480 kts 185°
2026-05-04 05:20 34.41023 114.83230 34100 ft 480 kts 185°
2026-05-04 05:20 34.34373 114.82578 34100 ft 480 kts 185°
2026-05-04 05:21 34.27718 114.81927 34100 ft 480 kts 185°
2026-05-04 05:21 34.21106 114.81282 34100 ft 480 kts 185°
2026-05-04 05:22 34.14457 114.80636 34100 ft 480 kts 184°
2026-05-04 05:22 34.07799 114.80009 34100 ft 480 kts 184°
2026-05-04 05:23 34.01150 114.79383 34100 ft 480 kts 184°
2026-05-04 05:23 33.94499 114.78758 34099 ft 480 kts 184°
2026-05-04 05:24 33.87841 114.78133 34100 ft 479 kts 184°
2026-05-04 05:24 33.81193 114.77493 34100 ft 479 kts 185°
2026-05-04 05:25 33.74539 114.76817 34099 ft 479 kts 185°
2026-05-04 05:25 33.67892 114.76161 34100 ft 479 kts 184°
2026-05-04 05:26 33.61233 114.75581 34100 ft 479 kts 184°
2026-05-04 05:26 33.54625 114.74921 34099 ft 479 kts 185°
2026-05-04 05:28 33.28027 114.72298 34100 ft 479 kts 184°
2026-05-04 05:29 33.21379 114.71673 34100 ft 479 kts 184°
2026-05-04 05:29 33.14726 114.71016 34100 ft 479 kts 185°
2026-05-04 05:31 32.88129 114.68373 34099 ft 479 kts 185°
2026-05-04 05:32 32.81481 114.67746 34100 ft 479 kts 184°
2026-05-04 05:33 32.71500 114.66811 34100 ft 479 kts 184°
2026-05-04 05:33 32.64858 114.66183 34100 ft 479 kts 184°
2026-05-04 05:34 32.58196 114.65558 34099 ft 479 kts 184°
2026-05-04 05:34 32.51549 114.64937 34100 ft 479 kts 184°
2026-05-04 05:35 32.44940 114.64320 34100 ft 479 kts 184°
2026-05-04 05:35 32.38248 114.63695 34099 ft 479 kts 184°
2026-05-04 05:36 32.31643 114.63056 34100 ft 479 kts 185°
2026-05-04 05:36 32.24991 114.62409 34100 ft 479 kts 185°
2026-05-04 05:37 32.18346 114.61765 34100 ft 479 kts 185°
2026-05-04 05:37 32.11694 114.61121 34100 ft 479 kts 185°
2026-05-04 05:38 32.01723 114.60156 34100 ft 479 kts 185°
2026-05-04 05:38 31.95076 114.59510 34100 ft 479 kts 185°
2026-05-04 05:39 31.85097 114.58547 34100 ft 479 kts 185°
2026-05-04 05:40 31.75126 114.57590 34100 ft 479 kts 185°
2026-05-04 05:40 31.68474 114.56952 34100 ft 479 kts 185°
2026-05-04 05:41 31.61829 114.56313 34099 ft 479 kts 185°
2026-05-04 05:41 31.55179 114.55665 34100 ft 479 kts 185°
2026-05-04 05:42 31.48572 114.55027 34100 ft 479 kts 185°
2026-05-04 05:42 31.41928 114.54387 34099 ft 479 kts 185°
2026-05-04 05:43 31.35281 114.53747 34100 ft 479 kts 185°
2026-05-04 05:45 31.10103 114.44741 34100 ft 479 kts 206°
2026-05-04 05:47 30.85949 114.31541 34099 ft 479 kts 204°
2026-05-04 05:47 30.79868 114.28349 34099 ft 479 kts 205°
2026-05-04 05:48 30.73835 114.25062 34100 ft 479 kts 205°
2026-05-04 05:48 30.67789 114.21790 34100 ft 479 kts 205°
2026-05-04 05:49 30.61741 114.18525 34100 ft 479 kts 205°
2026-05-04 05:49 30.55705 114.15230 34100 ft 479 kts 206°
2026-05-04 05:51 30.31568 114.02190 34100 ft 479 kts 205°
2026-05-04 05:52 30.25516 113.98945 34099 ft 479 kts 205°
2026-05-04 05:52 30.19462 113.95711 34100 ft 479 kts 205°
2026-05-04 05:54 29.95239 113.82813 34100 ft 479 kts 205°
2026-05-04 05:55 29.89147 113.79705 34102 ft 479 kts 200°
2026-05-04 05:55 29.82668 113.77979 34101 ft 479 kts 186°
2026-05-04 05:56 29.76011 113.77521 34100 ft 479 kts 182°
2026-05-04 05:56 29.69346 113.77223 34100 ft 479 kts 183°
2026-05-04 05:57 29.62686 113.76797 34100 ft 479 kts 183°
2026-05-04 05:57 29.56027 113.76342 34099 ft 479 kts 183°
2026-05-04 05:58 29.49377 113.75879 34100 ft 479 kts 183°
2026-05-04 05:58 29.42717 113.75420 34100 ft 479 kts 183°
2026-05-04 05:59 29.36059 113.74962 34099 ft 479 kts 183°
2026-05-04 05:59 29.29400 113.74504 34100 ft 479 kts 183°
2026-05-04 06:00 29.22748 113.74074 34100 ft 479 kts 181°
2026-05-04 06:00 29.16079 113.74171 34100 ft 479 kts 177°
2026-05-04 06:01 29.09465 113.74590 34100 ft 479 kts 176°
2026-05-04 06:03 28.82820 113.75928 34100 ft 479 kts 178°
2026-05-04 06:05 28.53960 113.77226 34100 ft 479 kts 178°
2026-05-04 06:06 28.47296 113.77524 34099 ft 479 kts 178°
2026-05-04 06:06 28.40633 113.77822 34100 ft 479 kts 178°
2026-05-04 06:07 28.33969 113.78119 34100 ft 479 kts 178°
2026-05-04 06:07 28.27306 113.78416 34100 ft 479 kts 178°
2026-05-04 06:08 28.20649 113.78713 34100 ft 479 kts 178°
2026-05-04 06:08 28.13985 113.79009 34100 ft 479 kts 178°
2026-05-04 06:09 28.07320 113.79305 34100 ft 479 kts 178°
2026-05-04 06:11 27.80710 113.80483 34099 ft 479 kts 178°
2026-05-04 06:13 27.54062 113.81657 34099 ft 479 kts 178°
2026-05-04 06:14 27.30749 113.82680 34100 ft 479 kts 178°
2026-05-04 06:15 27.24085 113.82972 34100 ft 479 kts 178°
2026-05-04 06:15 27.17422 113.83263 34100 ft 479 kts 178°
2026-05-04 06:16 27.10759 113.83554 34100 ft 479 kts 178°
2026-05-04 06:16 27.04096 113.83845 34100 ft 479 kts 178°
2026-05-04 06:17 26.97440 113.84135 34099 ft 479 kts 178°
2026-05-04 06:17 26.90777 113.84425 34100 ft 479 kts 178°
2026-05-04 06:18 26.84114 113.84715 34100 ft 479 kts 178°
2026-05-04 06:20 26.57515 113.85872 34100 ft 479 kts 178°
2026-05-04 06:21 26.41104 113.88610 34100 ft 479 kts 164°
2026-05-04 06:22 26.34674 113.90587 34100 ft 479 kts 165°
2026-05-04 06:25 25.89529 114.03719 34100 ft 479 kts 165°
2026-05-04 06:26 25.83095 114.05624 34099 ft 479 kts 165°
2026-05-04 06:26 25.76653 114.07528 34100 ft 479 kts 165°
2026-05-04 06:27 25.60552 114.12291 34100 ft 479 kts 165°
2026-05-04 06:28 25.54117 114.14190 34100 ft 479 kts 165°
2026-05-04 06:28 25.47676 114.16088 34099 ft 479 kts 165°
2026-05-04 06:29 25.41234 114.17984 34100 ft 479 kts 165°
2026-05-04 06:29 25.34793 114.19884 34100 ft 479 kts 165°
2026-05-04 06:30 25.28350 114.21775 34099 ft 479 kts 165°
2026-05-04 06:30 25.21909 114.23663 34100 ft 479 kts 165°
2026-05-04 06:31 25.15466 114.25551 34100 ft 479 kts 165°
2026-05-04 06:31 25.08964 114.26805 34099 ft 479 kts 178°
2026-05-04 06:33 24.82787 114.21486 34100 ft 479 kts 191°
2026-05-04 06:34 24.76246 114.20083 34100 ft 479 kts 191°
2026-05-04 06:34 24.69705 114.18666 34100 ft 479 kts 191°
2026-05-04 06:36 24.43543 114.13030 34100 ft 479 kts 191°
2026-05-04 06:37 24.37003 114.11624 34100 ft 479 kts 191°
2026-05-04 06:37 24.30516 114.09995 34099 ft 479 kts 195°
2026-05-04 06:38 24.24117 114.07946 34100 ft 479 kts 196°
2026-05-04 06:40 23.98495 114.00094 34100 ft 479 kts 195°
2026-05-04 06:40 23.92074 113.98144 34100 ft 479 kts 195°
2026-05-04 06:41 23.85652 113.96200 34099 ft 479 kts 195°
2026-05-04 06:41 23.79231 113.94256 34100 ft 479 kts 195°
2026-05-04 06:42 23.72813 113.92316 34100 ft 479 kts 195°
2026-05-04 06:44 23.47129 113.84581 34100 ft 479 kts 195°
2026-05-04 06:44 23.40712 113.82632 34099 ft 479 kts 195°
2026-05-04 06:45 23.34293 113.80691 34100 ft 479 kts 195°
2026-05-04 06:45 23.27915 113.78767 34100 ft 479 kts 195°
2026-05-04 06:46 23.21495 113.76832 34100 ft 479 kts 195°
2026-05-04 06:46 23.15078 113.74887 34099 ft 479 kts 195°
2026-05-04 06:48 22.89400 113.67171 34099 ft 479 kts 195°
2026-05-04 06:50 22.63795 113.59397 34100 ft 479 kts 195°
2026-05-04 06:51 22.57321 113.57833 34098 ft 477 kts 182°
2026-05-04 06:51 22.54017 113.58171 34099 ft 478 kts 166°
2026-05-04 06:51 22.50919 113.59456 34100 ft 479 kts 151°
2026-05-04 06:52 22.48246 113.61596 34099 ft 479 kts 135°
2026-05-04 06:52 22.46203 113.64430 34100 ft 479 kts 120°
2026-05-04 06:52 22.44929 113.67740 34105 ft 479 kts 106°
2026-05-04 06:52 22.44111 113.71229 34100 ft 478 kts 106°
2026-05-04 06:53 22.42914 113.74584 34098 ft 479 kts 117°
2026-05-04 06:53 22.41796 113.76633 34100 ft 478 kts 123°
2026-05-04 06:53 22.37506 113.83636 34100 ft 479 kts 122°
2026-05-04 06:54 22.33540 113.89415 34100 ft 479 kts 131°
2026-05-04 06:54 22.29795 113.93812 34099 ft 478 kts 133°
2026-05-04 06:55 22.25276 113.99085 34095 ft 478 kts 135°
2026-05-04 06:55 22.22660 114.01269 34100 ft 477 kts 151°
2026-05-04 06:55 22.18522 114.02817 34099 ft 478 kts 172°
2026-05-04 06:57 21.93340 113.98563 34100 ft 478 kts 188°
2026-05-04 06:58 21.86782 113.97617 34099 ft 478 kts 187°
2026-05-04 06:58 21.80186 113.96664 34100 ft 478 kts 188°
2026-05-04 06:59 21.73592 113.95689 34100 ft 478 kts 188°
2026-05-04 06:59 21.66998 113.94704 34100 ft 478 kts 188°
2026-05-04 07:01 21.40626 113.90764 34099 ft 478 kts 188°
2026-05-04 07:02 21.34034 113.89782 34100 ft 478 kts 188°
2026-05-04 07:02 21.27442 113.88800 34100 ft 478 kts 188°
2026-05-04 07:03 21.20843 113.87819 34100 ft 478 kts 188°
2026-05-04 07:03 21.14251 113.86839 34099 ft 478 kts 188°
2026-05-04 07:04 21.07659 113.85860 34100 ft 478 kts 188°
2026-05-04 07:04 21.01068 113.84882 34100 ft 478 kts 188°
2026-05-04 07:05 20.94468 113.83904 34100 ft 478 kts 188°
2026-05-04 07:05 20.87877 113.82928 34099 ft 478 kts 188°
2026-05-04 07:06 20.78035 113.81473 34099 ft 478 kts 188°
2026-05-04 07:07 20.71444 113.80499 34100 ft 478 kts 188°
2026-05-04 07:09 20.45073 113.76612 34100 ft 478 kts 188°
2026-05-04 07:09 20.38483 113.75642 34100 ft 478 kts 188°
2026-05-04 07:10 20.31893 113.74674 34100 ft 478 kts 188°
2026-05-04 07:12 20.05523 113.70807 34100 ft 478 kts 188°
2026-05-04 07:12 19.98932 113.69843 34099 ft 478 kts 188°
2026-05-04 07:13 19.92341 113.68880 34100 ft 478 kts 188°
2026-05-04 07:13 19.85751 113.67918 34100 ft 478 kts 188°
2026-05-04 07:14 19.69277 113.65516 34100 ft 478 kts 188°
2026-05-04 07:15 19.62688 113.64557 34099 ft 478 kts 188°
2026-05-04 07:15 19.56091 113.63598 34100 ft 478 kts 188°
2026-05-04 07:16 19.49501 113.62641 34100 ft 478 kts 188°
2026-05-04 07:16 19.42913 113.61685 34099 ft 478 kts 188°
2026-05-04 07:17 19.36361 113.60736 34100 ft 478 kts 188°
2026-05-04 07:17 19.29773 113.59782 34100 ft 478 kts 188°
2026-05-04 07:18 19.23185 113.58828 34100 ft 478 kts 188°
2026-05-04 07:18 19.16590 113.57877 34099 ft 478 kts 188°
2026-05-04 07:19 19.10008 113.56931 34100 ft 478 kts 188°
2026-05-04 07:19 19.03412 113.55982 34100 ft 478 kts 188°
2026-05-04 07:20 18.96823 113.55029 34100 ft 478 kts 188°
2026-05-04 07:20 18.90236 113.54079 34100 ft 478 kts 188°
2026-05-04 07:22 18.63872 113.50346 34100 ft 478 kts 187°
2026-05-04 07:23 18.57322 113.49168 34101 ft 477 kts 196°
2026-05-04 07:23 18.51359 113.46153 34101 ft 478 kts 215°
2026-05-04 07:24 18.46082 113.41903 34101 ft 478 kts 218°
2026-05-04 07:24 18.40793 113.37658 34100 ft 478 kts 217°
2026-05-04 07:26 18.19361 113.21179 34099 ft 478 kts 216°
2026-05-04 07:27 18.13990 113.17052 34100 ft 478 kts 216°
2026-05-04 07:27 18.08624 113.12932 34100 ft 478 kts 216°
2026-05-04 07:28 18.03250 113.08811 34100 ft 478 kts 216°
2026-05-04 07:28 17.97869 113.04701 34099 ft 478 kts 216°
2026-05-04 07:29 17.92488 113.00596 34100 ft 478 kts 216°
2026-05-04 07:29 17.87115 112.96487 34100 ft 478 kts 216°
2026-05-04 07:30 17.81779 112.92333 34099 ft 478 kts 217°
2026-05-04 07:30 17.76480 112.88127 34100 ft 478 kts 217°
2026-05-04 07:31 17.71167 112.83931 34100 ft 478 kts 217°
2026-05-04 07:33 17.49898 112.67235 34100 ft 478 kts 217°
2026-05-04 07:33 17.44611 112.63087 34100 ft 478 kts 217°
2026-05-04 07:34 17.39255 112.58895 34099 ft 478 kts 217°
2026-05-04 07:34 17.33963 112.54758 34100 ft 478 kts 217°
2026-05-04 07:35 17.28641 112.50600 34100 ft 478 kts 217°
2026-05-04 07:35 17.23320 112.46440 34100 ft 478 kts 217°
2026-05-04 07:36 17.17994 112.42278 34099 ft 478 kts 217°
2026-05-04 07:38 16.96658 112.25704 34100 ft 478 kts 216°
2026-05-04 07:38 16.91295 112.21612 34099 ft 478 kts 216°
2026-05-04 07:39 16.85948 112.17567 34100 ft 477 kts 216°
2026-05-04 07:39 16.80566 112.13506 34100 ft 477 kts 216°
2026-05-04 07:40 16.75180 112.09441 34100 ft 477 kts 216°
2026-05-04 07:40 16.69802 112.05377 34100 ft 477 kts 216°
2026-05-04 07:41 16.64431 112.01306 34099 ft 477 kts 216°
2026-05-04 07:41 16.59929 111.97898 34100 ft 477 kts 216°
2026-05-04 07:42 16.54547 111.93832 34100 ft 477 kts 216°
2026-05-04 07:42 16.49197 111.89798 34100 ft 477 kts 216°
2026-05-04 07:43 16.43817 111.85746 34099 ft 477 kts 216°
2026-05-04 07:43 16.38434 111.81692 34100 ft 477 kts 216°
2026-05-04 07:44 16.33054 111.77644 34100 ft 477 kts 216°
2026-05-04 07:44 16.27664 111.73592 34100 ft 477 kts 216°
2026-05-04 07:45 16.22284 111.69549 34100 ft 477 kts 216°
2026-05-04 07:45 16.16897 111.65506 34100 ft 477 kts 216°
2026-05-04 07:46 16.11517 111.61469 34100 ft 477 kts 216°
2026-05-04 07:46 16.06125 111.57427 34100 ft 477 kts 216°
2026-05-04 07:47 16.00735 111.53389 34100 ft 477 kts 216°
2026-05-04 07:49 15.79179 111.37269 34100 ft 477 kts 216°
2026-05-04 07:49 15.73788 111.33246 34100 ft 477 kts 216°
2026-05-04 07:50 15.68395 111.29223 34100 ft 477 kts 216°
2026-05-04 07:50 15.62998 111.25202 34100 ft 477 kts 216°
2026-05-04 07:51 15.57611 111.21183 34100 ft 477 kts 216°
2026-05-04 07:51 15.52213 111.17163 34100 ft 477 kts 216°
2026-05-04 07:52 15.46817 111.13160 34100 ft 477 kts 216°
2026-05-04 07:52 15.41452 111.09183 34100 ft 477 kts 216°
2026-05-04 07:54 15.20015 110.92932 34100 ft 477 kts 216°
2026-05-04 07:55 15.14666 110.88873 34100 ft 477 kts 216°
2026-05-04 07:55 15.09308 110.84817 34100 ft 477 kts 216°
2026-05-04 07:56 15.03953 110.80755 34100 ft 477 kts 216°
2026-05-04 07:56 14.98607 110.76694 34100 ft 477 kts 216°
2026-05-04 07:57 14.93248 110.72631 34100 ft 477 kts 216°
2026-05-04 07:57 14.87890 110.68575 34100 ft 477 kts 216°
2026-05-04 07:58 14.82536 110.64527 34065 ft 477 kts 216°
2026-05-04 07:58 14.77184 110.60482 34000 ft 476 kts 216°
2026-05-04 07:59 14.71839 110.56446 34000 ft 476 kts 216°
2026-05-04 07:59 14.66523 110.52433 34000 ft 476 kts 216°
2026-05-04 08:00 14.61173 110.48397 34000 ft 476 kts 216°
2026-05-04 08:02 14.39760 110.32272 34000 ft 476 kts 216°
2026-05-04 08:02 14.34402 110.28244 34000 ft 476 kts 216°
2026-05-04 08:03 14.29047 110.24221 34000 ft 476 kts 216°
2026-05-04 08:03 14.23692 110.20201 34000 ft 476 kts 216°
2026-05-04 08:04 14.18339 110.16178 34000 ft 476 kts 216°
2026-05-04 08:04 14.12977 110.12157 34000 ft 476 kts 216°
2026-05-04 08:05 14.07616 110.08148 34000 ft 476 kts 216°
2026-05-04 08:05 14.02253 110.04143 34000 ft 476 kts 216°
2026-05-04 08:06 13.96897 110.00126 34000 ft 476 kts 216°
2026-05-04 08:06 13.91412 109.96299 34000 ft 476 kts 212°
2026-05-04 08:08 13.68851 109.82059 34000 ft 476 kts 212°
2026-05-04 08:11 13.43558 109.65820 34000 ft 476 kts 212°
2026-05-04 08:11 13.35122 109.60424 34000 ft 476 kts 212°
2026-05-04 08:12 13.29493 109.56824 34000 ft 476 kts 212°
2026-05-04 08:12 13.23869 109.53230 34000 ft 476 kts 212°
2026-05-04 08:13 13.18243 109.49637 34000 ft 476 kts 212°
2026-05-04 08:13 13.12617 109.46046 34000 ft 476 kts 212°
2026-05-04 08:14 13.06989 109.42456 34000 ft 476 kts 212°
2026-05-04 08:16 12.84511 109.28135 34000 ft 476 kts 212°
2026-05-04 08:16 12.78880 109.24558 34000 ft 476 kts 212°
2026-05-04 08:17 12.73247 109.20986 34000 ft 476 kts 212°
2026-05-04 08:17 12.67615 109.17412 34000 ft 476 kts 212°
2026-05-04 08:19 12.45100 109.03082 34000 ft 476 kts 212°
2026-05-04 08:20 12.39465 108.99516 34000 ft 476 kts 212°
2026-05-04 08:20 12.33831 108.95949 34000 ft 476 kts 212°
2026-05-04 08:21 12.28196 108.92373 34000 ft 476 kts 212°
2026-05-04 08:21 12.22564 108.88805 34000 ft 476 kts 212°
2026-05-04 08:22 12.16925 108.85239 34000 ft 476 kts 212°
2026-05-04 08:24 11.94416 108.71027 34000 ft 476 kts 212°
2026-05-04 08:24 11.88776 108.67478 34000 ft 476 kts 212°
2026-05-04 08:25 11.83136 108.63915 34000 ft 476 kts 212°
2026-05-04 08:25 11.77505 108.60351 34000 ft 476 kts 212°
2026-05-04 08:27 11.54950 108.46148 34000 ft 476 kts 212°
2026-05-04 08:28 11.50261 108.43199 34000 ft 476 kts 212°
2026-05-04 08:28 11.44624 108.39651 34000 ft 476 kts 212°
2026-05-04 08:29 11.38980 108.36104 34000 ft 476 kts 212°
2026-05-04 08:31 11.16409 108.21950 34000 ft 476 kts 212°
2026-05-04 08:33 10.93824 108.07823 34000 ft 476 kts 212°
2026-05-04 08:35 10.71611 107.93114 34000 ft 476 kts 213°
2026-05-04 08:35 10.66055 107.89433 34000 ft 476 kts 213°
2026-05-04 08:37 10.46649 107.76609 34000 ft 476 kts 213°
2026-05-04 08:38 10.41102 107.72928 33999 ft 476 kts 213°
2026-05-04 08:38 10.35556 107.69237 34000 ft 476 kts 213°
2026-05-04 08:40 10.13350 107.54551 34000 ft 476 kts 213°
2026-05-04 08:41 10.07798 107.50870 34000 ft 476 kts 213°
2026-05-04 08:41 10.02251 107.47198 34000 ft 476 kts 213°
2026-05-04 08:42 9.96696 107.43534 34000 ft 476 kts 213°
2026-05-04 08:42 9.91134 107.39872 34000 ft 476 kts 213°
2026-05-04 08:43 9.85578 107.36217 34000 ft 476 kts 213°
2026-05-04 08:43 9.80018 107.32553 34000 ft 476 kts 213°
2026-05-04 08:44 9.74501 107.28917 34000 ft 476 kts 213°
2026-05-04 08:46 9.52263 107.14295 34000 ft 476 kts 213°
2026-05-04 08:46 9.46700 107.10642 34000 ft 476 kts 213°
2026-05-04 08:47 9.41142 107.06993 34000 ft 476 kts 213°
2026-05-04 08:47 9.35579 107.03342 34000 ft 476 kts 213°
2026-05-04 08:48 9.30019 106.99695 34000 ft 476 kts 213°
2026-05-04 08:48 9.24455 106.96047 34000 ft 476 kts 213°
2026-05-04 08:49 9.18889 106.92400 34000 ft 476 kts 213°
2026-05-04 08:50 8.99416 106.79651 34000 ft 476 kts 213°
2026-05-04 08:51 8.93850 106.76006 34000 ft 476 kts 213°
2026-05-04 08:51 8.88287 106.72372 34000 ft 476 kts 213°
2026-05-04 08:52 8.82719 106.68739 34000 ft 476 kts 213°
2026-05-04 08:52 8.77153 106.65111 33998 ft 476 kts 212°
2026-05-04 08:53 8.74267 106.63585 34000 ft 475 kts 201°
2026-05-04 08:54 8.51379 106.64774 34000 ft 476 kts 173°
2026-05-04 08:55 8.44797 106.65566 34000 ft 476 kts 173°
2026-05-04 08:55 8.38206 106.66292 34000 ft 476 kts 174°
2026-05-04 09:01 7.69030 106.73649 34000 ft 476 kts 174°
2026-05-04 09:01 7.62432 106.74351 34000 ft 476 kts 174°
2026-05-04 09:02 7.55841 106.75051 34000 ft 476 kts 174°
2026-05-04 09:02 7.49249 106.75751 34000 ft 476 kts 174°
2026-05-04 09:03 7.42659 106.76451 34000 ft 476 kts 174°
2026-05-04 09:03 7.36068 106.77152 34000 ft 476 kts 174°
2026-05-04 09:04 7.29478 106.77853 34000 ft 476 kts 174°
2026-05-04 09:04 7.22884 106.78555 34000 ft 476 kts 174°
2026-05-04 09:05 7.16290 106.79257 34000 ft 476 kts 174°
2026-05-04 09:05 7.09740 106.79955 34000 ft 476 kts 174°
2026-05-04 09:06 7.03152 106.80624 33999 ft 476 kts 176°
2026-05-04 09:07 6.80362 106.76616 33999 ft 476 kts 192°
2026-05-04 09:08 6.77121 106.75898 34000 ft 476 kts 192°
2026-05-04 09:08 6.70653 106.74466 34000 ft 476 kts 192°
2026-05-04 09:09 6.64178 106.73034 34000 ft 476 kts 192°
2026-05-04 09:09 6.57702 106.71602 34000 ft 476 kts 192°
2026-05-04 09:10 6.51226 106.70172 34000 ft 476 kts 192°
2026-05-04 09:10 6.44750 106.68742 34000 ft 476 kts 192°
2026-05-04 09:11 6.38282 106.67314 34000 ft 476 kts 192°
2026-05-04 09:11 6.31806 106.65885 34000 ft 476 kts 192°
2026-05-04 09:12 6.25337 106.64458 34000 ft 476 kts 192°
2026-05-04 09:14 5.99475 106.58758 34000 ft 476 kts 192°
2026-05-04 09:14 5.92999 106.57331 34000 ft 476 kts 192°
2026-05-04 09:15 5.86522 106.55904 34000 ft 476 kts 192°
2026-05-04 09:15 5.80053 106.54480 34000 ft 476 kts 192°
2026-05-04 09:17 5.50912 106.48068 34000 ft 476 kts 192°
2026-05-04 09:18 5.45535 106.46885 34000 ft 476 kts 192°
2026-05-04 09:18 5.39063 106.45463 34000 ft 476 kts 192°
2026-05-04 09:19 5.32583 106.44038 34000 ft 476 kts 192°
2026-05-04 09:19 5.26113 106.42617 34000 ft 476 kts 192°
2026-05-04 09:20 5.19633 106.41193 34000 ft 476 kts 192°
2026-05-04 09:20 5.13162 106.39772 34000 ft 476 kts 192°
2026-05-04 09:21 5.06684 106.38350 34000 ft 476 kts 192°
2026-05-04 09:21 5.00213 106.36930 34000 ft 476 kts 192°
2026-05-04 09:22 4.93734 106.35508 34000 ft 476 kts 192°
2026-05-04 09:22 4.87264 106.34089 34000 ft 476 kts 192°
2026-05-04 09:23 4.80783 106.32667 34000 ft 476 kts 192°
2026-05-04 09:23 4.74274 106.31241 33999 ft 489 kts 192°
2026-05-04 09:25 4.47330 106.25343 34000 ft 495 kts 192°
2026-05-04 09:26 4.40595 106.23871 34000 ft 496 kts 192°
2026-05-04 09:26 4.33856 106.22401 33999 ft 495 kts 192°
2026-05-04 09:27 4.27017 106.21712 34001 ft 496 kts 179°
2026-05-04 09:27 4.20170 106.22518 34001 ft 496 kts 169°
2026-05-04 09:28 4.13439 106.24028 34000 ft 496 kts 167°
2026-05-04 09:28 4.06676 106.25409 34000 ft 496 kts 169°
2026-05-04 09:29 3.99900 106.26694 34000 ft 496 kts 169°
2026-05-04 09:29 3.93127 106.27962 34000 ft 496 kts 169°
2026-05-04 09:30 3.86347 106.29235 34000 ft 496 kts 169°
2026-05-04 09:30 3.79568 106.30510 34000 ft 496 kts 169°
2026-05-04 09:31 3.72791 106.31775 34000 ft 496 kts 169°
2026-05-04 09:31 3.66009 106.33058 34000 ft 496 kts 169°
2026-05-04 09:32 3.59233 106.34348 34000 ft 496 kts 169°
2026-05-04 09:34 3.32115 106.39400 34000 ft 496 kts 169°
2026-05-04 09:34 3.25335 106.40672 34000 ft 496 kts 169°
2026-05-04 09:35 3.18557 106.41957 34000 ft 496 kts 169°
2026-05-04 09:35 3.11783 106.43242 34000 ft 496 kts 169°
2026-05-04 09:37 2.84670 106.48360 34000 ft 496 kts 169°
2026-05-04 09:38 2.77890 106.49635 34000 ft 496 kts 169°
2026-05-04 09:38 2.71109 106.50905 34000 ft 496 kts 169°
2026-05-04 09:39 2.64331 106.52179 34000 ft 496 kts 169°
2026-05-04 09:39 2.57608 106.53453 34000 ft 496 kts 169°
2026-05-04 09:40 2.50829 106.54725 34000 ft 496 kts 169°
2026-05-04 09:40 2.44040 106.55989 34000 ft 496 kts 169°
2026-05-04 09:42 2.16931 106.61098 34000 ft 496 kts 169°
2026-05-04 09:43 2.10159 106.62378 34000 ft 496 kts 169°
2026-05-04 09:43 2.03375 106.63653 34000 ft 496 kts 169°
2026-05-04 09:44 1.96595 106.64917 34000 ft 496 kts 169°
2026-05-04 09:46 1.69475 106.69986 34000 ft 496 kts 169°
2026-05-04 09:46 1.62699 106.71269 34000 ft 496 kts 169°
2026-05-04 09:47 1.55920 106.72564 34000 ft 496 kts 169°
2026-05-04 09:49 1.28845 106.77595 33999 ft 496 kts 170°
2026-05-04 09:51 1.05077 106.81809 34000 ft 496 kts 170°
2026-05-04 09:51 0.98290 106.83019 34000 ft 496 kts 170°
2026-05-04 09:52 0.91500 106.84228 34000 ft 496 kts 170°
2026-05-04 09:52 0.84708 106.85438 34000 ft 496 kts 170°
2026-05-04 09:53 0.77918 106.86648 34000 ft 496 kts 170°
2026-05-04 09:53 0.71126 106.87858 34000 ft 496 kts 170°
2026-05-04 09:54 0.64340 106.89069 34000 ft 496 kts 170°
2026-05-04 09:54 0.57548 106.90281 34000 ft 496 kts 170°
2026-05-04 09:55 0.50756 106.91494 34000 ft 496 kts 170°
2026-05-04 09:55 0.43969 106.92702 34000 ft 496 kts 170°
2026-05-04 09:56 0.37182 106.93957 34000 ft 496 kts 169°
2026-05-04 09:56 0.30425 106.95313 33999 ft 496 kts 168°
2026-05-04 09:57 0.23659 106.96680 33999 ft 496 kts 168°
2026-05-04 09:57 0.16900 106.98035 33999 ft 496 kts 168°
2026-05-04 09:58 0.10131 106.99386 33999 ft 496 kts 168°
2026-05-04 09:58 0.03417 107.00726 33999 ft 496 kts 168°
2026-05-04 10:00 -0.23638 107.06137 34000 ft 496 kts 168°
2026-05-04 10:04 -0.69236 107.17804 33999 ft 496 kts 164°
2026-05-04 10:04 -0.75883 107.19678 33999 ft 496 kts 164°
2026-05-04 10:05 -0.82520 107.21549 33999 ft 496 kts 164°
2026-05-04 10:05 -0.89157 107.23423 33999 ft 496 kts 164°
2026-05-04 10:06 -0.95795 107.25298 33999 ft 496 kts 164°
2026-05-04 10:06 -1.02389 107.27160 33999 ft 496 kts 164°
2026-05-04 10:08 -1.25614 107.33727 34000 ft 496 kts 164°
2026-05-04 10:08 -1.32246 107.35605 34000 ft 496 kts 164°
2026-05-04 10:09 -1.38885 107.37473 34000 ft 496 kts 164°
2026-05-04 10:09 -1.45527 107.39331 34000 ft 496 kts 164°
2026-05-04 10:10 -1.52162 107.41198 34000 ft 496 kts 164°
2026-05-04 10:10 -1.58800 107.43075 33999 ft 496 kts 164°
2026-05-04 10:11 -1.65436 107.44954 33999 ft 496 kts 164°
2026-05-04 10:11 -1.72070 107.46832 33999 ft 496 kts 164°
2026-05-04 10:12 -1.78706 107.48709 33999 ft 496 kts 164°
2026-05-04 10:12 -1.85345 107.50588 33999 ft 496 kts 164°
2026-05-04 10:13 -1.91981 107.52466 34000 ft 496 kts 164°
2026-05-04 10:13 -1.98611 107.54343 34000 ft 496 kts 164°
2026-05-04 10:14 -2.05248 107.56222 34000 ft 496 kts 164°
2026-05-04 10:16 -2.31754 107.63732 34000 ft 496 kts 164°
2026-05-04 10:16 -2.38390 107.65611 34000 ft 496 kts 164°
2026-05-04 10:17 -2.45065 107.67503 34000 ft 496 kts 164°
2026-05-04 10:19 -2.71564 107.75020 34000 ft 496 kts 164°
2026-05-04 10:19 -2.78188 107.76925 34000 ft 496 kts 164°
2026-05-04 10:20 -2.84806 107.78861 34000 ft 496 kts 163°
2026-05-04 10:20 -2.91426 107.80809 34000 ft 496 kts 163°
2026-05-04 10:21 -2.98043 107.82757 34000 ft 496 kts 163°
2026-05-04 10:21 -3.04659 107.84703 34000 ft 496 kts 163°
2026-05-04 10:22 -3.14586 107.87619 34000 ft 496 kts 163°
2026-05-04 10:23 -3.21205 107.89564 34000 ft 496 kts 163°
2026-05-04 10:25 -3.47676 107.97350 34000 ft 496 kts 163°
2026-05-04 10:25 -3.54292 107.99296 34000 ft 496 kts 163°
2026-05-04 10:26 -3.60906 108.01243 34000 ft 496 kts 163°
2026-05-04 10:26 -3.67520 108.03191 34000 ft 496 kts 163°
2026-05-04 10:27 -3.74141 108.05140 34000 ft 496 kts 163°
2026-05-04 10:27 -3.80758 108.07090 34000 ft 496 kts 163°
2026-05-04 10:28 -3.87329 108.09027 34000 ft 496 kts 163°
2026-05-04 10:28 -3.93943 108.10977 34000 ft 496 kts 163°
2026-05-04 10:29 -4.00557 108.12929 34000 ft 496 kts 163°
2026-05-04 10:29 -4.07173 108.14885 33999 ft 496 kts 163°
2026-05-04 10:29 -4.10535 108.15615 34001 ft 495 kts 174°
2026-05-04 10:30 -4.13969 108.15568 33999 ft 495 kts 188°
2026-05-04 10:30 -4.17303 108.14729 34001 ft 496 kts 200°
2026-05-04 10:30 -4.20429 108.13265 34002 ft 496 kts 208°
2026-05-04 10:31 -4.26440 108.09878 34000 ft 496 kts 209°
2026-05-04 10:33 -4.50179 107.97262 33151 ft 491 kts 207°
2026-05-04 10:33 -4.53198 107.95677 32776 ft 488 kts 207°
2026-05-04 10:33 -4.56197 107.94099 32472 ft 485 kts 207°
2026-05-04 10:33 -4.59177 107.92530 32171 ft 483 kts 207°
2026-05-04 10:34 -4.62144 107.90968 31871 ft 481 kts 207°
2026-05-04 10:34 -4.65100 107.89412 31570 ft 479 kts 207°